This is the latest recevied weather packets stored in our database for station/object TK5EP-13. If no packets are shown the sender has not sent any weather packets the latest 1 day(s).
| Time | Temp. | Humidity | Pressure | Rain* | Wind** | Luminosity | Snow |
|---|---|---|---|---|---|---|---|
| 1777993128 | 17.78° C | 75% | - | - | 2.68 m/s, 184° | - | - |
| 1777992827 | 17.22° C | 74% | - | - | 3.13 m/s, 178° | - | - |
| 1777992527 | 17.22° C | 74% | - | - | 2.24 m/s, 177° | - | - |
| 1777992226 | 17.78° C | 73% | - | - | 2.24 m/s, 172° | - | - |
| 1777991922 | 17.78° C | 74% | - | - | 2.68 m/s, 157° | - | - |
| 1777991621 | 17.22° C | 74% | - | - | 2.24 m/s, 185° | - | - |
| 1777991320 | 17.78° C | 72% | - | - | 1.79 m/s, 166° | - | - |
| 1777991019 | 17.78° C | 73% | - | - | 2.24 m/s, 188° | - | - |
| 1777990718 | 17.78° C | 75% | - | - | 2.68 m/s, 188° | - | - |
| 1777990417 | 17.22° C | 74% | - | - | 3.13 m/s, 207° | - | - |
| 1777990114 | 17.22° C | 73% | - | - | 3.58 m/s, 192° | - | - |
| 1777989813 | 17.78° C | 74% | - | - | 1.79 m/s, 199° | - | - |
| 1777989512 | 17.78° C | 73% | - | - | 2.68 m/s, 189° | - | - |
| 1777989211 | 17.78° C | 74% | - | - | 1.79 m/s, 189° | - | - |
| 1777988910 | 17.78° C | 75% | - | - | 3.13 m/s, 176° | - | - |
| 1777988609 | 17.78° C | 76% | - | - | 2.68 m/s, 179° | - | - |
| 1777988308 | 17.78° C | 75% | - | - | 3.58 m/s, 170° | - | - |
| 1777988008 | 17.22° C | 78% | - | - | 2.68 m/s, 186° | - | - |
| 1777987707 | 17.22° C | 77% | - | - | 3.58 m/s, 215° | - | - |
| 1777987406 | 17.22° C | 77% | - | - | 4.02 m/s, 203° | - | - |
| 1777987105 | 17.22° C | 76% | - | - | 4.02 m/s, 205° | - | - |
| 1777986804 | 17.78° C | 75% | - | - | 4.47 m/s, 218° | - | - |
| 1777986503 | 17.78° C | 77% | - | - | 3.13 m/s, 224° | - | - |
| 1777986203 | 17.78° C | 78% | - | - | 3.58 m/s, 201° | - | - |
| 1777985902 | 17.22° C | 76% | - | - | 4.47 m/s, 216° | - | - |
* Rain since midnight (hover to see other rain measurements)
** Current wind speed in m/s (hover to see current wind gust speed)